Location: Bjelajci
(45.0103°N, 16.1758°E)
Time: 19:57:40
(UTC+00:00)

ERS-2 - Pass Details

Date: 14 July 2020
Orbit: 493 x 498 km, 98.5° (Epoch: 05 August)

Event Time Altitude Azimuth Distance (km) Brightness Sun altitude
Rises 02:27:46 0° 170° (S) 2,567 5.4 -8.5°
Reaches altitude 10° 02:29:50 10° 173° (S) 1,689 4.5 -8.2°
Maximum altitude 02:33:27 69° 257° (WSW) 535 2.1 -7.7°
Drops below altitude 10° 02:37:06 10° 341° (NNW) 1,701 5.1 -7.2°
Sets 02:39:12 0° 344° (NNW) 2,588 6.1 -7.0°
